Moab, UT

10:22 PM MDT on April 25, 2018 (GMT -0600)
Canyonlands

Weather History for KCNY - September, 2013

Change the Weather History Date:

Tuesday, September 17, 2013

  Actual Average Record
Temperature  
Mean Temperature 74 °F 67 °F  
Max Temperature 86 °F 82 °F 99 °F (1983)
Min Temperature 62 °F 52 °F 36 °F (2006)
Degree Days  
Heating Degree Days 0 2  
Month to date heating degree days 1 13  
Since 1 July heating degree days 1 14  
Cooling Degree Days 9 3  
Month to date cooling degree days 151 93  
Year to date cooling degree days 1618 1259  
Growing Degree Days 24 (Base 50)    
Moisture  
Dew Point 51 °F    
Average Humidity 48    
Maximum Humidity 67    
Minimum Humidity 29    
Precipitation  
Precipitation T in 0.03 in 0.53 in (1940)
Month to date precipitation 0.77 0.52  
Year to date precipitation 4.67 5.90  
Sea Level Pressure  
Sea Level Pressure 29.77 in    
Wind  
Wind Speed 9 mph (SE)    
Max Wind Speed 22 mph    
Max Gust Speed 26 mph    
Visibility 10 miles    
Events Rain , Thunderstorm    
T = Trace of Precipitation, MM = Missing Value Source: NWS Daily Summary

Daily Weather History Graph

Daily Weather History Graph

Search for Another Location

Airport or City:

Astronomy

Sep. 17, 2013 Rise Set
Actual Time 7:02 AM MDT 7:23 PM MDT
Civil Twilight 6:35 AM MDT 7:50 PM MDT
Nautical Twilight 6:04 AM MDT 8:21 PM MDT
Astronomical Twilight 5:32 AM MDT 8:53 PM MDT
Moon 6:12 PM MDT (9/17) 5:01 AM MDT (9/17)
Length of Visible Light 13h 14m
Length of Day
12h 21m
Waxing Gibbous, 96% of the Moon is Illuminated
Sep 17
Waxing Gibbous
Sep 19
Full
Sep 26
Last Quarter
Oct 4
New
Oct 11
First Quarter

Hourly Weather History & Observations

Time (MDT) Temp. Dew Point Humidity Pressure Visibility Wind Dir Wind Speed Gust Speed Precip Events Conditions
12:53 AM 66.0 °F 50.0 °F 56% 29.88 in 10.0 mi East 3.5 mph - N/A   Clear
1:53 AM 66.0 °F 48.9 °F 54% 29.87 in 10.0 mi Calm Calm - N/A   Clear
2:53 AM 64.9 °F 48.9 °F 56% 29.86 in 10.0 mi Calm Calm - N/A   Clear
3:53 AM 63.0 °F 51.1 °F 65% 29.86 in 10.0 mi Calm Calm - N/A   Clear
4:53 AM 64.9 °F 52.0 °F 63% 29.85 in 10.0 mi SE 8.1 mph - N/A   Mostly Cloudy
5:53 AM 64.9 °F 52.0 °F 63% 29.85 in 10.0 mi East 6.9 mph - N/A   Overcast
6:53 AM 64.0 °F 51.1 °F 63% 29.86 in 10.0 mi South 5.8 mph - N/A   Clear
7:53 AM 66.0 °F 51.1 °F 59% 29.87 in 10.0 mi ESE 5.8 mph - N/A   Partly Cloudy
8:53 AM 70.0 °F 51.1 °F 51% 29.87 in 10.0 mi ENE 8.1 mph - N/A   Mostly Cloudy
9:53 AM 71.1 °F 52.0 °F 51% 29.88 in 10.0 mi East 8.1 mph - N/A   Mostly Cloudy
10:53 AM 70.0 °F 55.9 °F 61% 29.87 in 10.0 mi SE 3.5 mph - 0.00 in Rain Light Rain
11:53 AM 75.0 °F 53.1 °F 46% 29.84 in 10.0 mi ESE 10.4 mph - 0.00 in   Scattered Clouds
12:53 PM 78.1 °F 52.0 °F 40% 29.80 in 10.0 mi SSE 11.5 mph - N/A   Scattered Clouds
1:53 PM 78.1 °F 54.0 °F 43% 29.78 in 10.0 mi ESE 13.8 mph - N/A   Scattered Clouds
2:53 PM 84.0 °F 52.0 °F 33% 29.72 in 10.0 mi South 12.7 mph 18.4 mph N/A   Clear
3:53 PM 84.9 °F 48.9 °F 29% 29.68 in 10.0 mi SSE 12.7 mph 21.9 mph N/A   Clear
4:53 PM 84.9 °F 48.0 °F 28% 29.65 in 10.0 mi South 19.6 mph 26.5 mph N/A   Partly Cloudy
5:53 PM 84.9 °F 48.9 °F 29% 29.62 in 10.0 mi South 18.4 mph - N/A   Scattered Clouds
6:53 PM 82.0 °F 48.9 °F 31% 29.62 in 10.0 mi South 13.8 mph - N/A   Partly Cloudy
7:53 PM 78.1 °F 51.1 °F 39% 29.63 in 10.0 mi SSE 6.9 mph - N/A   Clear
8:53 PM 77.0 °F 51.1 °F 40% 29.62 in 10.0 mi SE 16.1 mph - N/A   Mostly Cloudy
9:53 PM 75.9 °F 51.1 °F 42% 29.63 in 10.0 mi SSE 10.4 mph - N/A Thunderstorm Partly Cloudy
10:53 PM 73.9 °F 51.1 °F 45% 29.63 in 10.0 mi South 8.1 mph - N/A Thunderstorm Scattered Clouds
11:41 PM 73.4 °F 51.8 °F 47% 29.81 in 10.0 mi SSE 5.8 mph - N/A   Mostly Cloudy
11:53 PM 71.1 °F 53.1 °F 53% 29.65 in 10.0 mi SSW 3.5 mph - N/A Thunderstorm Mostly Cloudy